Regional Weather Roundup
Issued by NWS Goodland, KS

Home | Current Version | Previous Version | Text Only | Print | Product List | Glossary On
Versions: 1 2 3 4 5 6 7 8 9 10 11 12 13 14 15 16 17 18 19 20 21 22 23 24 25 26 27 28 29 30 31 32 33 34 35 36 37 38 39 40 41 42 43 44 45 46 47 48 49 50
790
ASUS43 KGLD 060408
RWRGLD

GOODLAND FORECAST AREA HOURLY WEATHER ROUNDUP
NATIONAL WEATHER SERVICE GOODLAND KS
1000 PM MDT THU MAY 05 2016

...OFFICIAL OBSERVATIONS...

CITY           SKY/WX    TMP DP  RH WIND       PRES   REMARKS
GOODLAND KS    CLOUDY    59  49  69 S14       30.04R
HILL CITY KS   CLOUDY    62  49  62 S8        30.04R
IMPERIAL NEB   CLOUDY    64  49  57 SE14      30.01R
MCCOOK NEB     CLOUDY    65  48  54 S10       30.01R
AKRON CO       CLOUDY    59  42  53 S13       30.03R
BURLINGTON CO  PTCLDY    59  44  57 SE14      30.06R
LIMON CO       CLOUDY    51  41  68 SE7       30.09R
$$

...UNOFFICIAL OBSERVATIONS...

CITY           SKY/WX    TMP DP  RH WIND       PRES   REMARKS
COLBY KS       CLEAR     63  52  67 SE12      30.06R
LENORA KS        N/A     58  32  37 MISG        N/A
NORTON KS      CLEAR     63  43  48 SE9       30.03S
SHARON SPRINGS   N/A     59  49  69 SE10        N/A
KIT CARSON CO    N/A     64  44  49 MISG        N/A
YUMA CO          N/A     58  45  61 CALM        N/A
$$




USA.gov is the U.S. government's official web portal to all federal, state and local government web resources and services.